Find Shiyan 10

NORAD ID: 49258 Int'l Des: 2021-087 Owner: SAST Country: CN operational
MEOELLIPTICALHEO_ELLIPTICALSEMI_SYNCMOLNIYA

Live-Position

3D-Globus wird geladen...

Über Shiyan 10

Beschreibung wird geladen...

Nächste Überflüge

Passes for default location (London). Set your location on the main map for personalized predictions.

Höhenverlauf

Loading altitude history...

Zweizeiliger Elementsatz

1 49258U 21087A 26084.15707159 .00000723 00000-0 00000+0 0 9992
2 49258 63.1051 229.7633 6965628 269.9206 17.2146 2.00652834 32842
Epoch: 25. März 2026 • Age: 554 hours

Aktueller Status

Höhe 35320.9 km
Geschwindigkeit 2.03 km/s
Subsatellitenpunkt 59.39°N, 0.71°W
Startdatum 27. Sept. 2021
Alter 4.5 years
Typ other

Technische Details

Klassifizierung Payload
Masse 4600.00 kg
Trockenmasse 2500.00 kg
Gesamtmasse 4600.00 kg
Länge 5.00 m
Durchmesser 2.50 m
Spannweite 30.00 m
Form Box + 2 Pan
Hersteller SAST
Bus-Typ SY10
Phasenstatus In Orbit
Besitzer/Staat SAST/CN

Most Searched